Location: Unspecified
(54.1780°N, 0.0000°E)
Time: 08:55:32
(UTC+00:00)

S-56A Canister/Altair - Pass Details

Date: 21 June 2019
Orbit: 632 x 2500 km, 38.9° (Epoch: 16 July)

Event Time Altitude Azimuth Distance (km) Brightness Sun altitude
Rises 20:17:53 0° 254° (WSW) 3,683 11.5 1.3°
Reaches altitude 10° 20:23:12 10° 218° (SW) 2,343 10.0 0.7°
Maximum altitude 20:24:15 11° 206° (SSW) 2,239 9.8 0.6°
Drops below altitude 10° 20:25:16 10° 194° (SSW) 2,220 9.6 0.5°
Sets 20:29:36 0° 154° (SSE) 2,955 9.9 0.0°
